[[{"header":{"parameterUnit":"m.s-1","parameterCategory":2,"la1":30.2992,"la2":30.254,"lo1":-89.0895,"lo2":-89.0443,"dy":0.0025,"dx":0.0025,"nx":19,"ny":19,"refTime":"2026-04-16T03:00:00:Z","depth":"0","parameterNumber":2,"parameterNumberName":"U-component_of_CURRENTS"},"data":[0,0,0,0.2864,0.2867,0.2969,0.2969,0.3008,0.3008,0,0,0,0,0,0,0,0,0,0,0,0.282,0.2821,0.2864,0.2867,0.2969,0.2969,0.3008,0.3008,0,0,0,0,0,0,0,0,0,0,0,0.282,0.2821,0.2822,0.2868,0.2969,0.2969,0.3008,0.2949,0,0,0,0,0,0,0,0,0,0,0.2859,0.2829,0.2821,0.2822,0.2868,0.2969,0.2969,0.2947,0.2952,0.2942,0,0.2971,0,0.3002,0.3011,0.3011,0,0,0,0.2847,0.2825,0.2868,0.2822,0.287,0.2969,0.2917,0.2951,0.2957,0.2949,0.2972,0.2975,0.3003,0.3011,0.3011,0.321,0.3212,0,0,0.2842,0.2819,0.2864,0.2873,0.2913,0.2914,0.2921,0.2955,0.2957,0.2973,0.2976,0.3004,0.3011,0.3011,0.3208,0.321,0,0,0,0.2839,0.2815,0.2858,0.287,0.2903,0.2918,0.2925,0.2955,0.2975,0.2977,0.3004,0.3011,0.3012,0.3206,0.3209,0.3311,0,0,0,0.2834,0.2815,0.2856,0.284,0.2903,0.2942,0.2924,0.2972,0.2978,0.3004,0.3011,0.3012,0.3204,0.3208,0.3304,0.3322,0,0,0,0.2812,0.2813,0.2833,0.284,0.2896,0.2943,0.2963,0.2974,0.2995,0.3011,0.3012,0.3202,0.3207,0.3297,0.3312,0.3356,0,0,0,0.2772,0.2812,0.2833,0.2899,0.2896,0.301,0.2963,0.3026,0.3049,0.3011,0.3204,0.3209,0.3295,0.3306,0.335,0.3289,0.3309,0,0,0.28,0.2814,0.286,0.2882,0.2978,0.2993,0.3119,0.3116,0.3119,0.3177,0.3182,0.3306,0.3311,0.3354,0.3553,0.3564,0,0,0,0.2855,0.2869,0.2912,0.2971,0.3063,0.3148,0.3169,0.323,0.3321,0.3159,0.3371,0.3372,0.3394,0.3349,0.3361,0.3401,0.323,0.3229,0.3229,0.2793,0.2868,0.2941,0.3035,0.312,0.3255,0.3358,0.3447,0.3417,0.3512,0.3504,0.3672,0.3632,0.3637,0.3684,0.3575,0.3576,0.3576,0.3576,0.2816,0.2847,0.2959,0.3051,0.3176,0.3285,0.3516,0.3567,0.3732,0.369,0.3707,0.3521,0.3655,0.37,0.3584,0.3582,0.3581,0.3581,0.358,0.2744,0.2769,0.2847,0.2971,0.3113,0.3292,0.3462,0.3639,0.3795,0.3868,0.3769,0.3766,0.3754,0.3858,0.3859,0.3859,0.3859,0.386,0.386,0.2624,0.2707,0.2741,0.2881,0.2948,0.311,0.3415,0.3569,0.3782,0.3873,0.3872,0.3844,0.3757,0.3687,0.3865,0.3864,0.3864,0.3863,0.3863,0.2511,0.2533,0.2581,0.2633,0.2794,0.2865,0.3171,0.3479,0.3674,0.3774,0.3939,0.3877,0.3822,0.3811,0.3745,0.3927,0.3927,0.3927,0.3927,0.2391,0.2422,0.2451,0.2499,0.2591,0.2758,0.2906,0.3269,0.3721,0.3912,0.3995,0.3942,0.3937,0.3886,0.3874,0.3808,0.4002,0.4002,0.4003,0.2309,0.2342,0.2318,0.2393,0.2495,0.2617,0.2714,0.3028,0.3697,0.4014,0.4077,0.4074,0.4003,0.3992,0.3907,0.3888,0.3776,0,0]},{"header":{"parameterUnit":"m.s-1","parameterCategory":2,"la1":30.2992,"la2":30.254,"lo1":-89.0895,"lo2":-89.0443,"dy":0.0025,"dx":0.0025,"nx":19,"ny":19,"refTime":"2026-04-16T03:00:00:Z","depth":"0","parameterNumber":3,"parameterNumberName":"V-component_of_CURRENTS"},"data":[0,0,0,0.0985,0.0984,0.0862,0.0861,0.0608,0.0606,0,0,0,0,0,0,0,0,0,0,0,0.1024,0.1024,0.0985,0.0984,0.0862,0.0861,0.0609,0.0606,0,0,0,0,0,0,0,0,0,0,0,0.1024,0.1024,0.1024,0.0983,0.0862,0.0861,0.0609,0.0715,0,0,0,0,0,0,0,0,0,0,0.0841,0.0906,0.1024,0.1024,0.0983,0.0863,0.0861,0.0721,0.0708,0.0649,0,0.0658,0,0.0644,0.0591,0.059,0,0,0,0.0942,0.0917,0.0893,0.1024,0.0982,0.0863,0.0905,0.0714,0.07,0.0632,0.0655,0.0646,0.064,0.0589,0.0588,0.0569,0.0571,0,0,0.0948,0.098,0.0903,0.0885,0.0985,0.0909,0.0902,0.0706,0.0699,0.0654,0.064,0.0635,0.0588,0.0586,0.0568,0.057,0,0,0,0.0996,0.0985,0.0966,0.0895,0.089,0.0907,0.0898,0.0707,0.0705,0.0638,0.0632,0.0587,0.0584,0.0566,0.0569,0.0867,0,0,0,0.0998,0.1016,0.0971,0.0985,0.0896,0.0812,0.0903,0.0718,0.0696,0.0634,0.0586,0.0582,0.0565,0.0568,0.0855,0.0961,0,0,0,0.1023,0.1018,0.1018,0.0987,0.0955,0.0815,0.0799,0.0712,0.0694,0.059,0.0581,0.0563,0.0567,0.0845,0.0943,0.1013,0,0,0,0.1039,0.1089,0.1019,0.1078,0.0957,0.0962,0.08,0.0759,0.0689,0.0585,0.0565,0.0568,0.0841,0.0932,0.1004,0.1012,0.1058,0,0,0.1121,0.11,0.114,0.1076,0.1136,0.0973,0.104,0.0868,0.0722,0.061,0.0609,0.0859,0.0942,0.1011,0.1218,0.1259,0,0,0,0.1179,0.1207,0.1215,0.1229,0.1194,0.1186,0.1028,0.0992,0.0921,0.0704,0.0848,0.0889,0.0924,0.0908,0.0941,0.0605,0.0585,0.0585,0.0584,0.1312,0.1308,0.1386,0.1379,0.1381,0.1325,0.1332,0.1244,0.108,0.1122,0.1127,0.1372,0.1364,0.1387,0.1043,0.113,0.1131,0.1132,0.1132,0.146,0.1516,0.1517,0.1591,0.1587,0.1624,0.1603,0.1545,0.1558,0.14,0.1419,0.1217,0.144,0.106,0.1151,0.1148,0.1146,0.1144,0.1142,0.155,0.1582,0.1623,0.1717,0.1824,0.1819,0.1948,0.1902,0.1797,0.1858,0.1712,0.1705,0.1365,0.1838,0.1839,0.184,0.1841,0.1841,0.1842,0.1628,0.1671,0.1745,0.1849,0.1943,0.2062,0.2144,0.2174,0.212,0.2011,0.2008,0.1415,0.1584,0.1551,0.1855,0.1853,0.1851,0.185,0.1849,0.1735,0.172,0.1846,0.1937,0.2144,0.2314,0.2388,0.244,0.2422,0.2396,0.1749,0.2058,0.1934,0.1904,0.1875,0.2245,0.2245,0.2245,0.2245,0.1774,0.1784,0.1931,0.2086,0.2277,0.2434,0.2631,0.2644,0.2237,0.1918,0.1723,0.1544,0.1543,0.138,0.1362,0.1313,0.1533,0.1531,0.153,0.1821,0.1871,0.1976,0.2112,0.235,0.2541,0.272,0.2745,0.2015,0.1461,0.1262,0.1293,0.0982,0.1006,0.0702,0.0703,0.0605,0,0]}],[{"header":{"parameterUnit":"m.s-1","parameterCategory":2,"la1":30.2992,"la2":30.254,"lo1":-89.0895,"lo2":-89.0443,"dy":0.0025,"dx":0.0025,"nx":19,"ny":19,"refTime":"2026-04-16T03:00:00:Z","depth":"2","parameterNumber":2,"parameterNumberName":"U-component_of_CURRENTS"},"data":[0,0,0,0.2107,0.2108,0.2146,0.2146,0.2186,0.2186,0,0,0,0,0,0,0,0,0,0,0,0.2092,0.2093,0.2106,0.2108,0.2146,0.2146,0.2186,0.2186,0,0,0,0,0,0,0,0,0,0,0,0.2092,0.2093,0.2093,0.2108,0.2145,0.2146,0.2186,0.2158,0,0,0,0,0,0,0,0,0,0,0.2121,0.211,0.2093,0.2093,0.2108,0.2145,0.2146,0.2156,0.2159,0.2168,0,0.218,0,0.2188,0.2189,0.2189,0,0,0,0.2101,0.2108,0.2121,0.2093,0.2109,0.2145,0.2127,0.2158,0.2161,0.2172,0.218,0.2182,0.2188,0.219,0.219,0.2275,0.2275,0,0,0.2099,0.2095,0.2119,0.2124,0.2126,0.2125,0.2128,0.216,0.2165,0.2181,0.2183,0.2189,0.219,0.219,0.2274,0.2275,0,0,0,0.2098,0.2094,0.2106,0.2122,0.2132,0.2127,0.213,0.2163,0.2169,0.2184,0.2189,0.219,0.2191,0.2273,0.2274,0.239,0,0,0,0.2096,0.2093,0.2105,0.2103,0.2131,0.2149,0.2132,0.2166,0.217,0.2189,0.219,0.2191,0.2273,0.2274,0.2386,0.2424,0,0,0,0.2089,0.2092,0.21,0.2102,0.2122,0.2149,0.2156,0.2167,0.2174,0.2189,0.2191,0.2272,0.2274,0.2382,0.2417,0.249,0,0,0,0.2079,0.2097,0.21,0.213,0.2122,0.2166,0.2155,0.2182,0.2197,0.219,0.2273,0.2274,0.2381,0.2413,0.2485,0.2415,0.243,0,0,0.2095,0.2098,0.2119,0.2123,0.2168,0.2159,0.2224,0.2234,0.2222,0.2259,0.2261,0.2387,0.2417,0.2489,0.2495,0.2508,0,0,0,0.212,0.2131,0.2148,0.2176,0.2205,0.2256,0.2261,0.2285,0.2341,0.224,0.2383,0.2397,0.244,0.2387,0.2398,0.2281,0.2281,0.2281,0.228,0.212,0.2146,0.2181,0.2221,0.226,0.2319,0.2377,0.241,0.2393,0.2443,0.249,0.2617,0.2563,0.257,0.2492,0.2492,0.2493,0.2493,0.2494,0.2135,0.2142,0.2201,0.224,0.2309,0.2367,0.2486,0.2518,0.2645,0.2591,0.2628,0.2508,0.2588,0.2503,0.2501,0.25,0.2499,0.2498,0.2497,0.2106,0.211,0.2152,0.2213,0.2308,0.2402,0.2535,0.2643,0.2722,0.2801,0.2733,0.2729,0.2689,0.2829,0.283,0.283,0.2831,0.2831,0.2831,0.2039,0.2082,0.2104,0.2188,0.2239,0.2363,0.2578,0.2687,0.2812,0.2844,0.2843,0.273,0.2719,0.2708,0.2839,0.2838,0.2837,0.2836,0.2836,0.196,0.1988,0.202,0.2061,0.219,0.2268,0.2473,0.2668,0.2821,0.2862,0.2864,0.2861,0.2813,0.2801,0.2791,0.2937,0.2937,0.2937,0.2937,0.1888,0.1911,0.1945,0.2001,0.2097,0.2224,0.2278,0.2409,0.2635,0.2698,0.2707,0.2597,0.26,0.2532,0.2527,0.2506,0.2579,0.2578,0.2577,0.1821,0.1856,0.1854,0.1938,0.205,0.2141,0.2097,0.2084,0.2333,0.2556,0.2581,0.2925,0.2786,0.2781,0.2689,0.2676,0.2648,0,0]},{"header":{"parameterUnit":"m.s-1","parameterCategory":2,"la1":30.2992,"la2":30.254,"lo1":-89.0895,"lo2":-89.0443,"dy":0.0025,"dx":0.0025,"nx":19,"ny":19,"refTime":"2026-04-16T03:00:00:Z","depth":"2","parameterNumber":3,"parameterNumberName":"V-component_of_CURRENTS"},"data":[0,0,0,-0.0838,-0.0838,-0.0836,-0.0836,-0.0884,-0.0885,0,0,0,0,0,0,0,0,0,0,0,-0.0829,-0.0829,-0.0838,-0.0838,-0.0836,-0.0836,-0.0884,-0.0885,0,0,0,0,0,0,0,0,0,0,0,-0.0829,-0.0829,-0.0829,-0.0838,-0.0836,-0.0836,-0.0884,-0.0872,0,0,0,0,0,0,0,0,0,0,-0.0866,-0.0839,-0.0829,-0.0829,-0.0838,-0.0836,-0.0836,-0.087,-0.0872,-0.09,0,-0.0894,0,-0.0898,-0.0889,-0.089,0,0,0,-0.0833,-0.0837,-0.0853,-0.0829,-0.0838,-0.0836,-0.0836,-0.0871,-0.0873,-0.0903,-0.0895,-0.0897,-0.0899,-0.089,-0.089,-0.0929,-0.0929,0,0,-0.0834,-0.0816,-0.0851,-0.0854,-0.0832,-0.0836,-0.0836,-0.0872,-0.0863,-0.0895,-0.0898,-0.09,-0.089,-0.0891,-0.0929,-0.0929,0,0,0,-0.0837,-0.0816,-0.0829,-0.0853,-0.0852,-0.0836,-0.0836,-0.0861,-0.087,-0.0898,-0.09,-0.0891,-0.0892,-0.0929,-0.0929,-0.0814,0,0,0,-0.0837,-0.0819,-0.0829,-0.0817,-0.0851,-0.0847,-0.0824,-0.0867,-0.0872,-0.09,-0.0891,-0.0892,-0.093,-0.0929,-0.0818,-0.0744,0,0,0,-0.083,-0.0818,-0.0819,-0.0817,-0.0821,-0.0847,-0.0856,-0.0868,-0.0874,-0.089,-0.0892,-0.093,-0.0929,-0.0821,-0.0751,-0.0723,0,0,0,-0.0811,-0.0784,-0.0818,-0.0791,-0.0821,-0.0821,-0.0856,-0.0851,-0.0858,-0.0891,-0.093,-0.0929,-0.0821,-0.0755,-0.0726,-0.0578,-0.055,0,0,-0.0766,-0.0778,-0.0764,-0.0795,-0.077,-0.0821,-0.08,-0.0824,-0.0869,-0.0921,-0.0922,-0.0816,-0.0751,-0.0724,-0.0565,-0.0536,0,0,0,-0.0743,-0.0727,-0.0728,-0.0721,-0.0746,-0.074,-0.0786,-0.0807,-0.0821,-0.0874,-0.0844,-0.0807,-0.0793,-0.0713,-0.069,-0.0928,-0.0928,-0.0928,-0.0928,-0.0644,-0.0666,-0.0632,-0.0654,-0.0655,-0.069,-0.0688,-0.073,-0.0788,-0.0778,-0.0734,-0.0659,-0.0573,-0.0554,-0.0773,-0.0772,-0.0772,-0.0771,-0.0771,-0.0569,-0.0547,-0.056,-0.0531,-0.0547,-0.0537,-0.0582,-0.0609,-0.0612,-0.0668,-0.0662,-0.062,-0.0522,-0.0762,-0.0764,-0.0765,-0.0766,-0.0767,-0.0767,-0.0512,-0.0499,-0.0484,-0.0437,-0.0393,-0.0418,-0.035,-0.0409,-0.0487,-0.0464,-0.0414,-0.0415,-0.0574,-0.0465,-0.0465,-0.0464,-0.0464,-0.0464,-0.0463,-0.0453,-0.0439,-0.0376,-0.0335,-0.0278,-0.0213,-0.0202,-0.0198,-0.0218,-0.0265,-0.0265,-0.0557,-0.0567,-0.0559,-0.0456,-0.0458,-0.0458,-0.0459,-0.046,-0.0374,-0.0363,-0.0265,-0.0201,-0.0076,0.0082,0.0064,0.0143,0.0084,0.0097,-0.0177,-0.0186,-0.0211,-0.0229,-0.0215,-0.0029,-0.0029,-0.0029,-0.0029,-0.0306,-0.0304,-0.0142,-0.0022,0.0114,0.0224,0.049,0.0487,0.0313,0.0189,0.0179,0.0151,0.0131,0.0119,0.0093,0.011,0.0381,0.0382,0.0382,-0.0234,-0.0197,-0.0059,0.0048,0.0212,0.0422,0.0741,0.0837,0.0576,0.0392,0.0184,0.0011,-0.0059,-0.008,-0.0129,-0.0159,-0.0143,0,0]}],[{"header":{"parameterUnit":"m.s-1","parameterCategory":2,"la1":30.2992,"la2":30.254,"lo1":-89.0895,"lo2":-89.0443,"dy":0.0025,"dx":0.0025,"nx":19,"ny":19,"refTime":"2026-04-16T03:00:00:Z","depth":"4","parameterNumber":2,"parameterNumberName":"U-component_of_CURRENTS"},"data":[0,0,0,0.1142,0.1144,0.1267,0.1268,0.1362,0.1363,0,0,0,0,0,0,0,0,0,0,0,0.1103,0.1104,0.1141,0.1145,0.1267,0.1268,0.1362,0.1363,0,0,0,0,0,0,0,0,0,0,0,0.1102,0.1103,0.1105,0.1145,0.1267,0.1268,0.1362,0.1285,0,0,0,0,0,0,0,0,0,0,0.1173,0.1153,0.1103,0.1105,0.1146,0.1267,0.1268,0.1282,0.129,0.1288,0,0.1315,0,0.1339,0.1368,0.1368,0,0,0,0.1145,0.1147,0.1173,0.1105,0.1147,0.1267,0.1212,0.1287,0.1295,0.1298,0.1317,0.1321,0.134,0.1368,0.1368,0.1445,0.1445,0,0,0.1138,0.113,0.1167,0.1178,0.1188,0.1208,0.1216,0.1293,0.1308,0.1317,0.1324,0.1342,0.1368,0.1369,0.1445,0.1445,0,0,0,0.1118,0.1125,0.1151,0.1174,0.12,0.1212,0.122,0.1305,0.1312,0.1325,0.1343,0.1369,0.137,0.1444,0.1445,0.1554,0,0,0,0.1114,0.1114,0.1148,0.1145,0.12,0.1265,0.1231,0.1307,0.1317,0.1343,0.1369,0.137,0.1444,0.1445,0.155,0.1555,0,0,0,0.1095,0.1112,0.1127,0.1144,0.1196,0.1264,0.1277,0.131,0.1327,0.1368,0.1371,0.1444,0.1445,0.1547,0.155,0.1585,0,0,0,0.1079,0.1102,0.1127,0.1168,0.1195,0.1264,0.1277,0.1346,0.1385,0.1369,0.1444,0.1445,0.1546,0.1547,0.1582,0.1396,0,0,0,0.1091,0.1104,0.1127,0.1152,0.121,0.1247,0.1327,0.139,0.139,0.1413,0.1416,0.1552,0.155,0.1584,0.1439,0,0,0,0,0.1119,0.1135,0.1159,0.1206,0.1258,0.1321,0.1385,0.1431,0.1505,0.1416,0.1535,0.1529,0.1548,0.1431,0.1448,0.1448,0.1448,0.1448,0.1448,0.1103,0.114,0.1182,0.1237,0.1293,0.1387,0.1457,0.1521,0.1537,0.1594,0.1609,0.1688,0.1569,0.1618,0.1618,0.1619,0.1619,0.1619,0.162,0.1105,0.1122,0.1196,0.1256,0.1333,0.1414,0.154,0.1596,0.1708,0.1692,0.1708,0.1541,0.163,0.1628,0.1626,0.1625,0.1624,0.1624,0.1623,0.1069,0.1081,0.1144,0.1232,0.133,0.144,0.1556,0.1671,0.176,0.1813,0.1671,0.1739,0.174,0.1837,0.1837,0.1837,0.1837,0.1837,0.1838,0.0998,0.1054,0.11,0.1204,0.1265,0.1386,0.1578,0.1661,0.1765,0.1732,0.1836,0.176,0.1753,0.175,0.1841,0.184,0.184,0.1839,0.1839,0.0934,0.097,0.1015,0.1073,0.1197,0.1265,0.1473,0.1601,0.1668,0.1664,0.1684,0.1691,0.1621,0.1617,0.1607,0.1659,0.1656,0.1654,0,0.0875,0.0901,0.0945,0.099,0.1051,0.1184,0.1269,0.1393,0.15,0.1455,0.1626,0.1642,0.1648,0.156,0.1553,0.1535,0,0,0,0.0831,0.0852,0.0855,0.0916,0.0972,0.1102,0.1282,0.1303,0.1485,0.1515,0.1602,0.1616,0.1731,0.185,0.1757,0.1749,0.1739,0,0]},{"header":{"parameterUnit":"m.s-1","parameterCategory":2,"la1":30.2992,"la2":30.254,"lo1":-89.0895,"lo2":-89.0443,"dy":0.0025,"dx":0.0025,"nx":19,"ny":19,"refTime":"2026-04-16T03:00:00:Z","depth":"4","parameterNumber":3,"parameterNumberName":"V-component_of_CURRENTS"},"data":[0,0,0,-0.0225,-0.0226,-0.0282,-0.0282,-0.0308,-0.0308,0,0,0,0,0,0,0,0,0,0,0,-0.0201,-0.0201,-0.0225,-0.0226,-0.0282,-0.0282,-0.0308,-0.0308,0,0,0,0,0,0,0,0,0,0,0,-0.0201,-0.0201,-0.0202,-0.0226,-0.0282,-0.0282,-0.0308,-0.0278,0,0,0,0,0,0,0,0,0,0,-0.023,-0.0219,-0.0201,-0.0202,-0.0227,-0.0282,-0.0282,-0.0277,-0.028,-0.0268,0,-0.0274,0,-0.0291,-0.0308,-0.0308,0,0,0,-0.023,-0.0217,-0.0226,-0.0202,-0.0227,-0.0282,-0.0258,-0.0279,-0.0282,-0.0272,-0.0274,-0.0276,-0.0291,-0.0308,-0.0309,-0.0308,-0.0307,0,0,-0.0226,-0.0218,-0.0224,-0.0228,-0.0236,-0.0256,-0.026,-0.0281,-0.0284,-0.0274,-0.0277,-0.0292,-0.0309,-0.0309,-0.0308,-0.0307,0,0,0,-0.0215,-0.0215,-0.0225,-0.0226,-0.024,-0.0258,-0.0262,-0.0284,-0.0285,-0.0277,-0.0292,-0.0309,-0.0309,-0.0308,-0.0308,-0.0321,0,0,0,-0.0214,-0.0209,-0.0224,-0.022,-0.0239,-0.027,-0.0263,-0.0284,-0.0287,-0.0292,-0.0309,-0.0309,-0.0308,-0.0308,-0.0321,-0.0267,0,0,0,-0.02,-0.0208,-0.0211,-0.0219,-0.0242,-0.0271,-0.0274,-0.0285,-0.0295,-0.0308,-0.0309,-0.0308,-0.0308,-0.0321,-0.0268,-0.0242,0,0,0,-0.0193,-0.0188,-0.0211,-0.021,-0.0241,-0.0252,-0.0275,-0.0295,-0.0306,-0.0309,-0.0308,-0.0308,-0.0321,-0.0269,-0.0243,-0.0139,0,0,0,-0.018,-0.0187,-0.0185,-0.0206,-0.0202,-0.0245,-0.0252,-0.0283,-0.0299,-0.0298,-0.0298,-0.0321,-0.0268,-0.0242,-0.0134,0,0,0,0,-0.0176,-0.0173,-0.0175,-0.0182,-0.0198,-0.0207,-0.025,-0.0285,-0.0319,-0.0305,-0.0315,-0.0279,-0.0263,-0.0207,-0.0307,-0.0307,-0.0307,-0.0307,-0.0307,-0.0152,-0.0155,-0.0143,-0.0146,-0.0154,-0.0192,-0.0216,-0.0263,-0.0298,-0.0327,-0.0289,-0.0266,-0.021,-0.0318,-0.0318,-0.0318,-0.0318,-0.0318,-0.0318,-0.0122,-0.0108,-0.0113,-0.0104,-0.0112,-0.0122,-0.0181,-0.0228,-0.0259,-0.0299,-0.0285,-0.0223,-0.032,-0.0319,-0.0319,-0.0319,-0.0319,-0.0319,-0.0319,-0.01,-0.0088,-0.0086,-0.006,-0.0047,-0.0073,-0.0051,-0.0128,-0.0221,-0.022,-0.0146,-0.0244,-0.0243,-0.0223,-0.0222,-0.0222,-0.0222,-0.0221,-0.0221,-0.0072,-0.0062,-0.0029,-0.0007,0.0025,0.0049,0.0031,0.0016,-0.0075,-0.0092,-0.0199,-0.0232,-0.0235,-0.0236,-0.0216,-0.0217,-0.0218,-0.0218,-0.0218,-0.0032,-0.0026,0.0036,0.0074,0.0157,0.0191,0.0174,0.0156,0.0151,0.0112,-0.0034,-0.0044,-0.0011,-0.0019,-0.0011,0.0076,0.0077,0.0079,0,0.0001,0.0004,0.0104,0.0189,0.0279,0.0281,0.0338,0.0311,0.019,0.0182,0.0112,-0.0053,-0.0062,-0.0026,-0.003,-0.0021,0,0,0,0.0039,0.0065,0.0148,0.0225,0.0335,0.036,0.0355,0.0352,0.0203,0.0233,0.0116,0.0106,-0.004,-0.0201,-0.0174,-0.0178,-0.0176,0,0]}]]